This is the latest recevied weather packets stored in our database for station/object W4SNA-3. If no packets are shown the sender has not sent any weather packets the latest 10 day(s).
| Time | Temp. | Humidity | Pressure | Rain* | Wind** | Luminosity | Snow |
|---|---|---|---|---|---|---|---|
| 1777155952 | 14.44° C | 95% | 1009.5 hPa | 0.51 mm | - | - | - |
| 1777155652 | 14.44° C | 95% | 1009.5 hPa | 0.51 mm | - | - | - |
| 1777155353 | 14.44° C | 95% | 1009.4 hPa | 0.25 mm | - | - | - |
| 1777155051 | 14.44° C | 95% | 1009.3 hPa | 0.25 mm | - | - | - |
| 1777154755 | 14.44° C | 95% | 1009.3 hPa | 0.25 mm | - | - | - |
| 1777154452 | 14.44° C | 95% | 1009.2 hPa | 0.25 mm | - | - | - |
| 1777154154 | 14.44° C | 95% | 1009.2 hPa | 0.25 mm | - | - | - |
| 1777153852 | 14.44° C | 95% | 1009 hPa | 0.25 mm | - | - | - |
| 1777153552 | 14.44° C | 96% | 1009 hPa | 0.25 mm | - | - | - |
| 1777153270 | 14.44° C | 96% | 1009 hPa | 0.25 mm | - | - | - |
| 1777152954 | 14.44° C | 96% | 1008.9 hPa | 0 mm | - | - | - |
| 1777152651 | 14.44° C | 96% | 1008.9 hPa | 0 mm | - | - | - |
| 1777152353 | 14.44° C | 96% | 1009 hPa | 0.25 mm | - | - | - |
| 1777152052 | 14.44° C | 96% | 1009 hPa | 0.25 mm | - | - | - |
| 1777151752 | 14.44° C | 96% | 1009 hPa | 0.25 mm | - | - | - |
| 1777151470 | 13.89° C | 95% | 1009 hPa | 0.25 mm | - | - | - |
| 1777151151 | 13.89° C | 96% | 1009 hPa | 0.51 mm | - | - | - |
| 1777150869 | 13.89° C | 95% | 1009 hPa | 1.02 mm | - | - | - |
| 1777150554 | 13.89° C | 95% | 1009 hPa | 1.27 mm | - | - | - |
| 1777150252 | 13.89° C | 95% | 1008.9 hPa | 1.27 mm | - | - | - |
| 1777149953 | 13.89° C | 95% | 1008.7 hPa | 1.52 mm | - | - | - |
| 1777149651 | 13.33° C | 94% | 1008.8 hPa | 1.52 mm | - | - | - |
| 1777149352 | 13.33° C | 94% | 1008.7 hPa | 1.52 mm | - | - | - |
| 1777149051 | 13.89° C | 94% | 1008.6 hPa | 1.52 mm | - | - | - |
| 1777148752 | 13.89° C | 94% | 1008.6 hPa | 1.27 mm | - | - | - |
* Rain latest hour (hover to see other rain measurements)
** Current wind speed in m/s (hover to see current wind gust speed)